Location: Beutels
(47.8767°N, 9.8584°E)
Time: 23:38:23
(UTC+00:00)

Tiangong - Visible Passes

Search period start: 24 January 2026 00:00
Search period end: 03 February 2026 00:00
Orbit: 378 x 392 km, 41.5° (Epoch: 24 January)

Date Brightness Start Highest point End Pass type
(mag) Time Alt. Az. Time Alt. Az. Time Alt. Az.
24 Jan 1.0 04:09:58 13° ESE 04:09:58 13° ESE 04:10:31 10° ESE visible
24 Jan -0.3 05:42:11 13° WSW 05:44:17 23° S 05:46:54 10° SE visible
25 Jan -0.2 04:45:22 24° SSE 04:45:22 24° SSE 04:47:30 10° SE visible
25 Jan 0.3 06:19:04 10° WSW 06:21:05 16° SSW 06:23:05 10° SSE visible
26 Jan -0.2 05:20:42 18° SW 05:21:35 20° SSW 05:23:59 10° SE visible
27 Jan 0.6 04:23:47 15° SE 04:23:47 15° SE 04:24:36 10° SE visible
27 Jan 0.4 05:57:09 10° SW 05:58:11 11° SSW 05:59:14 10° S visible
28 Jan 0.2 04:59:04 15° S 04:59:04 15° S 05:00:36 10° SSE visible
